[[{"header":{"parameterUnit":"m.s-1","parameterCategory":1,"la1":30.2991,"la2":30.254,"lo1":-89.0895,"lo2":-89.0444,"dy":0.0017,"dx":0.0017,"nx":28,"ny":28,"refTime":"2025-02-10T03:00:00:Z","depth":0,"parameterNumber":2,"parameterNumberName":"U-component_of_WINDS"},"data":[0,0,0,0,0,0,0,0,0,0,0,0,0,0,0,0,0,0,0,0,0,0,0,0,0,0,0,0,0,0,0,0,0,0,0,0,0,0,0,0,0,0,0,0,0,0,0,0,0,0,0,0,0,0,0,0,0,0,-0.4525,-0.4525,0,-0.4464,-0.4464,-0.4463,-0.4433,-0.4433,-0.4433,-0.4433,-0.4369,-0.4367,-0.4365,0,0,0,0,0,0,0,0,0,0,0,0,0,-0.4614,-0.4613,-0.4525,-0.4525,-0.4524,-0.4465,-0.4464,-0.4463,-0.4433,-0.4433,-0.4433,-0.4433,-0.4369,-0.4367,-0.4365,0,0,0,0,0,0,0,0,0,0,0,0,0,-0.4567,-0.4612,-0.4526,-0.4502,-0.4499,-0.4465,-0.4464,-0.4463,-0.4433,-0.4433,-0.4433,-0.4433,-0.437,-0.4367,-0.4365,-0.4348,0,0,-0.4357,-0.4356,0,0,0,0,0,0,0,0,-0.4569,-0.4563,-0.4506,-0.4503,-0.45,-0.4456,-0.4471,-0.4424,-0.4433,-0.4458,-0.4433,-0.4433,-0.4398,-0.4393,-0.4381,-0.4345,-0.4343,-0.4357,-0.4355,-0.4354,-0.4353,0,0,0,0,0,0,0,-0.4573,-0.4566,-0.4501,-0.4505,-0.4502,-0.4494,-0.4487,-0.4462,-0.4428,-0.4456,-0.4454,-0.4447,-0.4396,-0.4384,-0.4379,-0.4342,-0.4357,-0.4354,-0.4353,-0.4352,-0.4289,-0.4289,0,0,0,0,0,0,-0.458,-0.4569,-0.4503,-0.4499,-0.4536,-0.4492,-0.4485,-0.447,-0.4429,-0.4422,-0.4447,-0.4446,-0.4388,-0.4382,-0.4377,-0.4355,-0.4354,-0.4351,-0.435,-0.4289,-0.4289,-0.4289,0,0,0,0,0,0,-0.4582,-0.4574,-0.4506,-0.4533,-0.4524,-0.4491,-0.4475,-0.4469,-0.4457,-0.4422,-0.4416,-0.4441,-0.4388,-0.4381,-0.4356,-0.4352,-0.435,-0.4348,-0.4289,-0.4289,-0.4289,-0.4311,0,0,0,0,0,0,-0.4585,-0.4575,-0.4569,-0.4534,-0.4523,-0.4486,-0.4475,-0.4468,-0.4453,-0.4451,-0.4414,-0.4408,-0.4387,-0.436,-0.4353,-0.4349,-0.4346,-0.4289,-0.4289,-0.4289,-0.431,-0.4312,-0.4313,0,0,0,0,0,-0.4588,-0.4578,-0.4569,-0.4561,-0.4515,-0.4486,-0.448,-0.4456,-0.4453,-0.4446,-0.4423,-0.441,-0.4354,-0.4358,-0.435,-0.4345,-0.429,-0.4289,-0.4289,-0.431,-0.4311,-0.4313,0,0,0,0,0,0,-0.4613,-0.4572,-0.4563,-0.454,-0.4517,-0.4481,-0.4472,-0.4459,-0.4435,-0.4434,-0.4405,-0.4397,-0.4375,-0.4357,-0.4362,-0.4326,-0.432,-0.4319,-0.4339,-0.434,-0.4341,-0.4346,-0.4344,0,0,0,0,0,-0.4616,-0.4597,-0.4562,-0.4546,-0.4535,-0.4506,-0.4492,-0.4476,-0.445,-0.444,-0.4416,-0.4391,-0.4367,-0.4353,-0.433,-0.4308,-0.4299,-0.43,-0.4302,-0.4303,-0.4301,-0.4288,-0.4288,-0.4288,-0.4288,-0.4288,0,0,-0.4622,-0.4598,-0.4587,-0.455,-0.453,-0.4511,-0.4497,-0.4477,-0.4462,-0.4437,-0.4412,-0.4393,-0.4363,-0.434,-0.4329,-0.4324,-0.4299,-0.4302,-0.4303,-0.4301,-0.4288,-0.4288,-0.4288,-0.4288,-0.4288,-0.4288,0,0,-0.4623,-0.4602,-0.4587,-0.4567,-0.4537,-0.4517,-0.4514,-0.448,-0.4466,-0.4441,-0.4422,-0.4403,-0.4364,-0.4344,-0.4328,-0.4321,-0.4307,-0.4314,-0.432,-0.4307,-0.4307,-0.4307,-0.4304,-0.4304,-0.4313,-0.4313,-0.4313,0,-0.4634,-0.4604,-0.458,-0.4561,-0.4545,-0.4522,-0.4506,-0.4487,-0.4451,-0.4441,-0.4437,-0.4387,-0.4365,-0.4337,-0.4335,-0.4323,-0.4318,-0.4318,-0.431,-0.4309,-0.4309,-0.4305,-0.4305,-0.4314,-0.4314,-0.4314,-0.4314,0,-0.4618,-0.4598,-0.4588,-0.4555,-0.4538,-0.452,-0.4493,-0.4479,-0.4465,-0.4445,-0.442,-0.4393,-0.4364,-0.4356,-0.4342,-0.4325,-0.4324,-0.4315,-0.4308,-0.431,-0.4307,-0.4305,-0.4316,-0.4315,-0.4315,-0.4315,0,0,-0.4632,-0.4586,-0.4583,-0.4568,-0.4533,-0.4516,-0.4497,-0.4469,-0.4458,-0.4433,-0.4416,-0.4384,-0.4376,-0.4358,-0.4341,-0.433,-0.4326,-0.4323,-0.4322,-0.4324,-0.4306,-0.4312,-0.4311,-0.4317,-0.4317,-0.4316,-0.4308,0,-0.4628,-0.4593,-0.4572,-0.4545,-0.4526,-0.4504,-0.4488,-0.4464,-0.4446,-0.4426,-0.4405,-0.4383,-0.4374,-0.4363,-0.4352,-0.4329,-0.4322,-0.4329,-0.43,-0.4299,-0.4308,-0.431,-0.4316,-0.431,-0.4307,-0.4307,-0.4307,0,-0.4618,-0.4595,-0.4567,-0.4535,-0.4526,-0.4511,-0.4484,-0.4466,-0.4438,-0.4426,-0.4406,-0.4389,-0.4368,-0.4363,-0.4333,-0.4338,-0.4325,-0.4312,-0.4311,-0.4307,-0.4303,-0.4305,-0.4308,-0.4307,-0.4304,-0.4304,-0.4305,0,-0.4631,-0.4593,-0.4571,-0.4558,-0.452,-0.451,-0.4494,-0.4467,-0.4452,-0.4427,-0.4417,-0.4391,-0.4376,-0.4356,-0.4332,-0.4331,-0.4304,-0.4297,-0.4292,-0.4293,-0.4287,-0.4287,-0.4287,-0.4279,-0.4279,-0.4279,-0.4279,0,-0.4627,-0.4611,-0.4576,-0.4563,-0.4544,-0.4519,-0.4501,-0.4482,-0.4458,-0.4441,-0.442,-0.4404,-0.4373,-0.4353,-0.4334,-0.4312,-0.4305,-0.4294,-0.4289,-0.4296,-0.4297,-0.4286,-0.4286,-0.4279,-0.4279,-0.4279,-0.4279,0,-0.4638,-0.4614,-0.4589,-0.4555,-0.4546,-0.4534,-0.4504,-0.449,-0.4471,-0.4449,-0.4442,-0.4412,-0.4387,-0.4361,-0.4327,-0.4315,-0.4292,-0.4286,-0.4302,-0.4299,-0.4295,-0.4296,-0.4287,-0.4284,-0.4279,-0.4279,-0.4279,0,-0.4638,-0.4625,-0.459,-0.4577,-0.4561,-0.454,-0.4524,-0.4499,-0.4484,-0.4452,-0.4442,-0.4415,-0.4393,-0.4354,-0.4329,-0.4303,-0.4295,-0.4294,-0.4291,-0.4298,-0.4294,-0.4295,-0.4294,-0.4294,-0.4295,-0.4295,-0.4295,0,-0.4639,-0.4628,-0.4607,-0.4581,-0.4563,-0.4542,-0.452,-0.451,-0.448,-0.4464,-0.4439,-0.4421,-0.4387,-0.4361,-0.4332,-0.4314,-0.4299,-0.4296,-0.4293,-0.43,-0.4309,-0.4304,-0.4304,-0.4296,-0.4296,-0.4296,-0.4296,-0.4296,-0.4644,-0.4631,-0.4605,-0.4581,-0.4562,-0.4542,-0.4527,-0.4506,-0.4485,-0.4456,-0.4442,-0.4416,-0.4389,-0.4349,-0.4331,-0.4311,-0.4306,-0.4303,-0.4302,-0.4301,-0.4302,-0.4313,-0.4305,-0.4305,-0.4305,-0.4305,-0.4305,0,-0.4644,-0.4626,-0.4605,-0.4574,-0.4556,-0.4545,-0.452,-0.4505,-0.4483,-0.4459,-0.4438,-0.4409,-0.4384,-0.4356,-0.4329,-0.4318,-0.431,-0.4312,-0.4312,-0.4308,-0.4308,-0.4313,-0.4318,-0.4318,-0.4318,-0.4318,-0.4318,-0.4318,-0.4641,-0.462,-0.4605,-0.4574,-0.4555,-0.4531,-0.4517,-0.4498,-0.4479,-0.4448,-0.4427,-0.441,-0.4384,-0.4355,-0.4332,-0.4324,-0.4315,-0.4318,-0.4309,-0.4309,-0.4308,-0.4307,-0.4311,-0.4316,-0.4316,-0.431,-0.431,-0.431]},{"header":{"parameterUnit":"m.s-1","parameterCategory":1,"la1":30.2991,"la2":30.254,"lo1":-89.0895,"lo2":-89.0444,"dy":0.0017,"dx":0.0017,"nx":28,"ny":28,"refTime":"2025-02-10T03:00:00:Z","depth":0,"parameterNumber":3,"parameterNumberName":"V-component_of_WINDS"},"data":[0,0,0,0,0,0,0,0,0,0,0,0,0,0,0,0,0,0,0,0,0,0,0,0,0,0,0,0,0,0,0,0,0,0,0,0,0,0,0,0,0,0,0,0,0,0,0,0,0,0,0,0,0,0,0,0,0,0,2.0279,2.028,0,2.0283,2.0283,2.0283,2.0245,2.0243,2.0242,2.0241,2.0245,2.0246,2.0247,0,0,0,0,0,0,0,0,0,0,0,0,0,2.024,2.0241,2.0279,2.028,2.028,2.0283,2.0283,2.0283,2.0245,2.0243,2.0242,2.0241,2.0245,2.0246,2.0247,0,0,0,0,0,0,0,0,0,0,0,0,0,2.0252,2.0241,2.0279,2.0261,2.0259,2.0283,2.0283,2.0283,2.0245,2.0243,2.0242,2.024,2.0244,2.0246,2.0248,2.029,0,0,2.0253,2.0253,0,0,0,0,0,0,0,0,2.0251,2.0253,2.0263,2.0262,2.026,2.0262,2.027,2.0285,2.0245,2.025,2.0241,2.0239,2.0252,2.0253,2.0257,2.029,2.029,2.0253,2.0254,2.0254,2.0255,0,0,0,0,0,0,0,2.025,2.0253,2.0281,2.0264,2.0262,2.0252,2.0252,2.0273,2.026,2.025,2.0247,2.0248,2.0251,2.0256,2.0257,2.029,2.0253,2.0254,2.0255,2.0256,2.0359,2.0361,0,0,0,0,0,0,2.0252,2.0252,2.0281,2.0281,2.0252,2.0254,2.0254,2.0263,2.026,2.0258,2.0249,2.0246,2.0254,2.0255,2.0257,2.0308,2.0254,2.0256,2.0257,2.0358,2.036,2.0362,0,0,0,0,0,0,2.0251,2.0255,2.0281,2.0266,2.0268,2.0257,2.0267,2.0264,2.0269,2.0259,2.0257,2.0257,2.0252,2.0255,2.0282,2.0307,2.0257,2.0258,2.0355,2.0358,2.0361,2.0409,0,0,0,0,0,0,2.025,2.0255,2.027,2.0267,2.0269,2.0306,2.0268,2.0265,2.0272,2.0267,2.0266,2.0264,2.0251,2.028,2.0284,2.0309,2.0259,2.0353,2.0357,2.036,2.0405,2.0413,2.0419,0,0,0,0,0,2.0249,2.0283,2.0271,2.0275,2.0289,2.0307,2.0309,2.0294,2.0274,2.029,2.0284,2.0264,2.0303,2.0283,2.0287,2.0313,2.0352,2.0356,2.036,2.0402,2.0411,2.0419,0,0,0,0,0,0,2.029,2.0283,2.0269,2.0303,2.0307,2.0301,2.0321,2.0304,2.0313,2.0309,2.029,2.029,2.0321,2.0319,2.0297,2.0354,2.0324,2.0329,2.0355,2.0363,2.0371,2.0371,2.0261,0,0,0,0,0,2.0304,2.0319,2.0311,2.0342,2.0345,2.0333,2.034,2.0328,2.033,2.0332,2.0328,2.0331,2.0344,2.0353,2.0365,2.0404,2.0404,2.0423,2.043,2.0436,2.0442,2.0464,2.0473,2.0375,2.0375,2.0375,0,0,2.0331,2.0329,2.034,2.0351,2.0352,2.0369,2.0334,2.0353,2.0366,2.0334,2.0361,2.0358,2.036,2.0395,2.0409,2.0394,2.0469,2.0441,2.0446,2.0448,2.0469,2.0478,2.0487,2.0377,2.0377,2.0376,0,0,2.039,2.0389,2.0416,2.0418,2.042,2.0411,2.0418,2.0415,2.0412,2.0438,2.0416,2.043,2.0453,2.0456,2.0461,2.0522,2.0505,2.0526,2.0565,2.0586,2.0594,2.0601,2.0625,2.0634,2.0531,2.0531,2.0531,0,2.0424,2.0449,2.0432,2.0453,2.0459,2.0431,2.0459,2.0461,2.0467,2.0472,2.0455,2.0484,2.0483,2.0519,2.0534,2.0537,2.0545,2.0527,2.0594,2.0601,2.0607,2.063,2.0639,2.0534,2.0533,2.0533,2.0533,0,2.0492,2.051,2.0531,2.0538,2.0546,2.057,2.0557,2.0567,2.0555,2.0549,2.0576,2.0575,2.0586,2.0593,2.0581,2.0627,2.0618,2.0598,2.0568,2.062,2.0641,2.0649,2.0538,2.0537,2.0536,2.0535,0,0,2.0579,2.0576,2.0584,2.0588,2.0588,2.0601,2.0624,2.0636,2.0646,2.0651,2.0671,2.0691,2.0673,2.0678,2.0666,2.0685,2.0736,2.0662,2.0662,2.0678,2.0789,2.0806,2.0816,2.0723,2.0725,2.0726,2.079,0,2.0638,2.0678,2.0663,2.0705,2.0722,2.0696,2.0716,2.0719,2.0713,2.0727,2.0721,2.0737,2.071,2.0714,2.0731,2.0726,2.0758,2.0721,2.0743,2.0744,2.0746,2.0827,2.0845,2.0905,2.0798,2.0799,2.08,0,2.0713,2.0722,2.0765,2.0764,2.077,2.0789,2.0799,2.0812,2.0815,2.081,2.0816,2.08,2.0823,2.0792,2.0824,2.0799,2.0807,2.0806,2.0808,2.0812,2.0777,2.0835,2.0924,2.0934,2.0812,2.0811,2.081,0,2.0775,2.0797,2.0826,2.083,2.0828,2.0842,2.0842,2.0843,2.0852,2.086,2.0866,2.0877,2.0883,2.0892,2.088,2.0857,2.0915,2.0882,2.0913,2.0914,2.0928,2.0928,2.1022,2.0929,2.0929,2.0929,2.0929,0,2.0845,2.0873,2.0855,2.0873,2.0904,2.0886,2.0917,2.0914,2.0916,2.0933,2.091,2.0927,2.0909,2.0924,2.0914,2.0944,2.0946,2.0944,2.0941,2.0948,2.0948,2.0954,2.0951,2.0931,2.0931,2.093,2.093,0,2.092,2.0908,2.0939,2.0935,2.0935,2.0958,2.0955,2.0972,2.0965,2.0988,2.0992,2.0981,2.0998,2.0986,2.1003,2.0996,2.1036,2.1027,2.1036,2.1034,2.1067,2.1065,2.117,2.1184,2.108,2.1081,2.1082,0,2.0966,2.0987,2.0986,2.0996,2.0998,2.1015,2.1023,2.1006,2.1016,2.1022,2.1039,2.1054,2.1065,2.1094,2.1088,2.1101,2.1093,2.1129,2.1095,2.1101,2.1097,2.1097,2.11,2.1137,2.1138,2.1139,2.114,0,2.105,2.1044,2.1057,2.1069,2.108,2.1088,2.1095,2.1104,2.1088,2.11,2.1118,2.1127,2.1144,2.116,2.1171,2.1171,2.1154,2.115,2.1158,2.1166,2.1172,2.1172,2.1057,2.1148,2.1147,2.1147,2.1146,2.1146,2.1114,2.1132,2.1135,2.1151,2.1154,2.1161,2.1177,2.1172,2.1187,2.12,2.1189,2.1211,2.1213,2.1226,2.1229,2.1246,2.1231,2.1243,2.1246,2.125,2.1256,2.1167,2.1247,2.1247,2.1247,2.1247,2.1246,0,2.1199,2.12,2.1214,2.1225,2.1237,2.1218,2.1225,2.1237,2.1257,2.1261,2.1273,2.1294,2.1309,2.1304,2.1318,2.1333,2.1325,2.1338,2.1338,2.1338,2.1267,2.1259,2.1344,2.1344,2.1344,2.1344,2.1344,2.1344,2.1245,2.1276,2.127,2.1302,2.1302,2.1324,2.1329,2.1336,2.1339,2.1364,2.1377,2.1373,2.1374,2.1388,2.1402,2.14,2.1408,2.1423,2.1419,2.1353,2.1343,2.1334,2.1327,2.1424,2.1425,2.1489,2.149,2.1491]}]]